Regional Weather Roundup
Issued by NWS Memphis, TN

Current Version | Previous Version | Text Only | Print | Product List | Glossary On
Versions: 1 2 3 4 5 6 7 8 9 10 11 12 13 14 15 16 17 18 19 20 21 22 23 24 25 26 27 28 29 30 31 32 33 34 35 36 37 38 39 40 41 42 43 44 45 46 47 48 49 50
000
ASUS44 KMEG 301210
RWRMEG
MEMPHIS CWA HOURLY WEATHER ROUNDUP
NATIONAL WEATHER SERVICE MEMPHIS TN
700 AM CDT FRI SEP 30 2022

...WEST TENNESSEE...

CITY           SKY/WX    TMP DP  RH WIND       PRES   REMARKS
MEMPHIS INTL   CLEAR     52  46  80 NE6       30.14R
6HR MIN TEMP:  51; 6HR MAX TEMP:  61;

NWS MEMPHIS      N/A     49 N/A N/A MISG        N/A
JACKSON        CLEAR     42  40  92 CALM      30.15S
6HR MIN TEMP:  41; 6HR MAX TEMP:  49;

COVINGTON      CLEAR     45  45 100 N5        30.15S
BOLIVAR        CLEAR     43  41  93 CALM      30.13S
LEXINGTON      CLEAR     46  45  93 CALM      30.13S
SELMER         CLEAR     48  45  87 N5        30.12S
SAVANNAH       CLEAR     45  43  93 CALM      30.12R
DYERSBURG      CLEAR     49  49 100 NE8       30.17S
6HR MIN TEMP:  48; 6HR MAX TEMP:  53;

UNION CITY     CLEAR     43  43 100 N3        30.16S
PARIS          CLEAR     46  45  93 NE6       30.15S


...EASTERN ARKANSAS...

CITY           SKY/WX    TMP DP  RH WIND       PRES   REMARKS
JONESBORO      CLEAR     51  45  79 N7        30.19S
6HR MIN TEMP:  51; 6HR MAX TEMP:  58;

WEST MEMPHIS   CLEAR     46  43  89 NW3       30.14S
6HR MIN TEMP:  46; 6HR MAX TEMP:  56;

BATESVILLE     CLEAR     44  42  93 VRB5      30.21R
6HR MIN TEMP:  44; 6HR MAX TEMP:  50;

NEWPORT        CLEAR     45  42  89 N6        30.20R
6HR MIN TEMP:  45; 6HR MAX TEMP:  49;

WALNUT RIDGE   CLEAR     45  43  93 N6        30.20S
6HR MIN TEMP:  45; 6HR MAX TEMP:  52;

BLYTHEVILLE    CLEAR     41  39  93 N5        30.17R
6HR MIN TEMP:  41; 6HR MAX TEMP:  48;

SEARCY         CLEAR     50  44  80 N5        30.18S
6HR MIN TEMP:  50; 6HR MAX TEMP:  58;

STUTTGART      CLEAR     45  44  97 N8        30.16S
6HR MIN TEMP:  45; 6HR MAX TEMP:  52;

PINE BLUFF     CLEAR     50  45  83 N6        30.15S
6HR MIN TEMP:  48; 6HR MAX TEMP:  59;

MONTICELLO     CLEAR     48  44  86 CALM      30.13R
6HR MIN TEMP:  47; 6HR MAX TEMP:  58;



...NORTH MISSISSIPPI...

CITY           SKY/WX    TMP DP  RH WIND       PRES   REMARKS
TUPELO         CLEAR     49  44  83 N9        30.11R
6HR MIN TEMP:  49; 6HR MAX TEMP:  54;

OXFORD         CLEAR     48  45  87 NE3       30.14S
BATESVILLE     CLEAR     46  45  93 CALM      30.12S
OLIVE BRANCH   CLEAR     48  46  93 N5        30.13S
TUNICA         CLEAR     45  45 100 N6        30.15R
CLARKSDALE     CLEAR     46  46 100 N7        30.14R
CORINTH        CLEAR     45  45 100 CALM      30.13R
IUKA           FAIR      49  48  98 CALM      30.12S
GREENWOOD      CLEAR     49  45  86 N3        30.10R
6HR MIN TEMP:  46; 6HR MAX TEMP:  52;

COLUMBUS       CLEAR     48  45  90 NW5       30.06S
6HR MIN TEMP:  48; 6HR MAX TEMP:  53;

STARKVILLE     CLEAR     48  46  93 CALM      30.08R
GOLDEN TRIANGL CLEAR     46  45  96 NW3       30.09R
6HR MIN TEMP:  46; 6HR MAX TEMP:  54;



...SOUTHEAST MISSOURI...

CITY           SKY/WX    TMP DP  RH WIND       PRES   REMARKS
KENNETT        CLEAR     48  48 100 N8        30.18S
MALDEN         CLEAR     48  43  81 N3        30.22R
WEST PLAINS    CLEAR     41  37  86 NE3       30.23S
6HR MIN TEMP:  40; 6HR MAX TEMP:  50;

POPLAR BLUFF   CLEAR     43  41  93 NW3       30.21S
6HR MIN TEMP:  43; 6HR MAX TEMP:  52;

CAPE GIRARDEAU CLEAR     39  38  96 CALM      30.22S
6HR MIN TEMP:  36; 6HR MAX TEMP:  44;



...NORTHWEST ALABAMA...

CITY           SKY/WX    TMP DP  RH WIND       PRES   REMARKS
MUSCLE SHOALS  CLEAR     49  47  93 CALM      30.11R
6HR MIN TEMP:  49; 6HR MAX TEMP:  60;



...MIDDLE TENNESSEE...

CITY           SKY/WX    TMP DP  RH WIND       PRES   REMARKS
NASHVILLE      CLEAR     50  43  77 NE5       30.16R
6HR MIN TEMP:  50; 6HR MAX TEMP:  55;

CLARKSVILLE    CLEAR     45  41  86 N5        30.17S
6HR MIN TEMP:  45; 6HR MAX TEMP:  52;

DICKSON        CLEAR     46  45  93 NE7       30.14R
COLUMBIA       CLEAR     43  43 100 CALM      30.12R
LAWRENCEBURG   CLEAR     46  45  93 N6        30.11R
LEWISBURG      CLEAR     39  39 100 CALM      30.13R


...WESTERN KENTUCKY...

CITY           SKY/WX    TMP DP  RH WIND       PRES   REMARKS
PADUCAH        CLEAR     43  41  93 CALM      30.19R
6HR MIN TEMP:  42; 6HR MAX TEMP:  53;

FORT CAMPBELL  CLEAR     42  42  99 N6        30.15S
6HR MIN TEMP:  42; 6HR MAX TEMP:  49;



...CENTRAL ARKANSAS...

CITY           SKY/WX    TMP DP  RH WIND       PRES   REMARKS
LITTLE ROCK    CLEAR     53  42  66 N6        30.17S
6HR MIN TEMP:  51; 6HR MAX TEMP:  59;



SKY/WX REPORTED AS FAIR MEANS FEW OR NO CLOUDS BELOW
12 THOUSAND FEET.




USA.gov is the U.S. government's official web portal to all federal, state and local government web resources and services.